This is the latest recevied weather packets stored in our database for station/object W0CHP-13. If no packets are shown the sender has not sent any weather packets the latest 10 day(s).
| Time | Temp. | Humidity | Pressure | Rain* | Wind** | Luminosity | Snow |
|---|---|---|---|---|---|---|---|
| 1788213618 | 32.22° C | 65% | 1009.5 hPa | 0 mm | - | 310 W/m² | - |
| 1788213017 | 32.22° C | 67% | 1009.2 hPa | 0 mm | - | 343 W/m² | - |
| 1788212418 | 31.67° C | 71% | 1009.2 hPa | 0 mm | - | 514 W/m² | - |
| 1788211817 | 31.11° C | 70% | 1009.2 hPa | 0 mm | - | 147 W/m² | - |
| 1788211218 | 31.11° C | 69% | 1008.9 hPa | 0 mm | - | 112 W/m² | - |
| 1788210616 | 31.11° C | 69% | 1009.6 hPa | 0 mm | - | 163 W/m² | - |
| 1788210015 | 31.11° C | 69% | 1009.3 hPa | 0 mm | - | 148 W/m² | - |
| 1788209416 | 31.11° C | 69% | 1008.9 hPa | 0 mm | - | 175 W/m² | - |
| 1788208815 | 30.56° C | 69% | 1008.9 hPa | 0 mm | - | 190 W/m² | - |
| 1788208217 | 30.56° C | 71% | 1008.9 hPa | 0 mm | - | 152 W/m² | - |
| 1788207616 | 31.11° C | 69% | 1008.5 hPa | 0 mm | - | 110 W/m² | - |
| 1788207017 | 31.67° C | 66% | 1008.9 hPa | 0 mm | - | 188 W/m² | - |
| 1788206416 | 31.11° C | 65% | 1008.8 hPa | 0 mm | - | 145 W/m² | - |
| 1788205818 | 31.11° C | 65% | 1008.9 hPa | 0 mm | - | 135 W/m² | - |
| 1788205215 | 31.11° C | 66% | 1008.9 hPa | 0 mm | - | 109 W/m² | - |
| 1788204616 | 31.11° C | 65% | 1008.9 hPa | 0 mm | - | 94 W/m² | - |
| 1788204015 | 31.67° C | 65% | 1008.9 hPa | 0 mm | - | 85 W/m² | - |
| 1788203417 | 31.67° C | 65% | 1008.8 hPa | 0 mm | - | 130 W/m² | - |
| 1788202816 | 31.67° C | 63% | 1008.6 hPa | 0 mm | - | 120 W/m² | - |
| 1788202223 | 31.67° C | 63% | 1008.9 hPa | 0 mm | - | 203 W/m² | - |
| 1788201616 | 32.22° C | 62% | 1008.9 hPa | 0 mm | - | 171 W/m² | - |
| 1788201015 | 32.78° C | 62% | 1008.9 hPa | 0 mm | - | 211 W/m² | - |
| 1788200426 | 32.78° C | 59% | 1008.9 hPa | 0 mm | - | 261 W/m² | - |
| 1788199816 | 32.78° C | 60% | 1008.9 hPa | 0 mm | - | 856 W/m² | - |
| 1788199218 | 32.22° C | 62% | 1009.2 hPa | 0 mm | - | 525 W/m² | - |
* Rain latest hour (hover to see other rain measurements)
** Current wind speed in m/s (hover to see current wind gust speed)